Hourly Weather Roundup
Issued by NWS Central Illinois

Home | Current Version | Previous Version | Text Only | Print | Product List | Glossary On
Versions: 1 2 3 4 5 6 7 8 9 10 11 12 13 14 15 16 17 18 19 20 21 22 23 24 25 26 27 28 29 30 31 32 33 34 35 36 37 38 39 40 41 42 43 44 45 46 47 48 49 50
000
NZUS43 KILX 281510
HWRILX

AREA WEATHER ROUNDUP
NATIONAL WEATHER SERVICE, LINCOLN IL
1000 AM CDT THU AUG 28 2014


CITY           SKY/WX    TMP DP  RH WIND       PRES   REMARKS
BLOOMINGTON    PTSUNNY   70  63  78 E9        30.12S
CHAMPAIGN      MOSUNNY   74  68  81 E7        30.11S
DECATUR        PTSUNNY   74  67  78 E8        30.09S
FLORA          MOSUNNY   79  71  75 E6        30.07S HX  82
GALESBURG      CLOUDY    71  64  79 E8        30.09R
JACKSONVILLE   SUNNY     78  72  81 SE9       30.07F HX  81
LACON          PTSUNNY   71  61  72 SE8       30.09S
LAWRENCEVILLE  MOSUNNY   78  70  76 E6        30.07S HX  80
LITCHFIELD     SUNNY     77  72  85 SE7       30.06S
$$


CITY           SKY/WX    TMP DP  RH WIND       PRES   REMARKS
LINCOLN        PTSUNNY   75  65  72 E8        30.06S
MACOMB         PTSUNNY   69  65  85 E7        30.09S
MATTOON        PTSUNNY   76  66  71 CALM      30.08S
MT CARMEL AP   MOSUNNY   84  72  65 E6        30.06S HX  89
OLNEY-NOBLE AP MOSUNNY   81  73  78 CALM      30.07R HX  85
PARIS          MOSUNNY   73  67  83 E3        30.10S
PEORIA         PTSUNNY   73  63  70 E8        30.09S
PONTIAC        NOT AVBL
RANTOUL        MOSUNNY   74  64  71 SE6       30.12S
ROBINSON       MOSUNNY   82  72  71 SE5       30.08S HX  86
SPRINGFIELD    PTSUNNY   77  67  71 SE7       30.07S
TAYLORVILLE    PTSUNNY   73  68  83 SE8       30.07S
$$

...REGIONAL REPORTS...


CITY           SKY/WX    TMP DP  RH WIND       PRES   REMARKS
CHICAGO O`HARE MOSUNNY   72  53  51 E12       30.13S
KANKAKEE       PTSUNNY   72  64  75 E7        30.12S
MOLINE         PTSUNNY   71  61  70 E13       30.08S
MOUNT VERNON   MOSUNNY   79  72  78 E6        30.06S HX  82
PITTSFIELD     MOSUNNY   78  71  79 E8        30.06S HX  81
QUINCY         PTSUNNY   75  70  84 SE12      30.04S
ROCKFORD       MOSUNNY   72  59  63 SE13      30.15R
$$


CITY           SKY/WX    TMP DP  RH WIND       PRES   REMARKS
BURLINGTON     PTSUNNY   71  63  75 SE8       30.06S
CEDAR RAPIDS   CLOUDY    68  61  78 SE8       30.07S
DES MOINES     RAIN      67  65  93 SE8       30.02F FOG
KIRKSVILLE     PTSUNNY   76  70  82 SE8       30.03S
OTTUMWA        LGT RAIN  68  67  96 E7        30.04S FOG
ST LOUIS       MOSUNNY   81  71  71 SE6       30.05F HX  85
$$


CITY           SKY/WX    TMP DP  RH WIND       PRES   REMARKS
TERRE HAUTE    MOSUNNY   74  66  76 E5        30.08F
EVANSVILLE     SUNNY     82  73  74 CALM      30.06R HX  87
INDIANAPOLIS   PTSUNNY   73  65  75 E8        30.09F
LAFAYETTE      CLOUDY    70  64  81 E7        30.11S
MADISON        MOSUNNY   70  57  63 SE13      30.14S
MILWAUKEE      MOSUNNY   69  56  62 SE14      30.15S
$$




USA.gov is the U.S. government's official web portal to all federal, state and local government web resources and services.